TimeEST,TemperatureF,Dew PointF,Humidity,Sea Level PressureIn,VisibilityMPH,Wind Direction,Wind SpeedMPH,Gust SpeedMPH,PrecipitationIn,Events,Conditions,WindDirDegrees,DateUTC
12:15 AM,55.4,53.6,94,30.04,10.0,South,6.9,-,N/A,,Overcast,170,2011-11-10 05:15:00
12:35 AM,55.4,53.6,94,30.04,10.0,South,5.8,-,N/A,,Overcast,170,2011-11-10 05:35:00
12:55 AM,55.4,53.6,94,30.03,10.0,South,5.8,-,N/A,,Overcast,170,2011-11-10 05:55:00
1:15 AM,55.4,53.6,94,30.03,10.0,South,4.6,-,N/A,,Overcast,180,2011-11-10 06:15:00
1:35 AM,55.4,53.6,94,30.03,8.0,South,4.6,-,N/A,,Overcast,170,2011-11-10 06:35:00
1:55 AM,55.4,53.6,94,30.03,6.0,SSE,5.8,-,N/A,,Overcast,160,2011-11-10 06:55:00
2:35 AM,55.4,53.6,94,30.01,2.0,South,4.6,-,N/A,,Overcast,180,2011-11-10 07:35:00
2:55 AM,55.4,53.6,94,30.00,0.5,South,3.5,-,N/A,,Overcast,180,2011-11-10 07:55:00
3:15 AM,55.4,53.6,94,30.00,0.2,SSE,3.5,-,N/A,,Overcast,160,2011-11-10 08:15:00
3:35 AM,55.4,53.6,94,29.99,0.2,SSE,3.5,-,N/A,,Overcast,150,2011-11-10 08:35:00
4:15 AM,55.4,53.6,94,29.98,0.2,ESE,3.5,-,N/A,,Overcast,110,2011-11-10 09:15:00
4:35 AM,55.4,53.6,94,29.97,0.2,East,4.6,-,N/A,,Overcast,100,2011-11-10 09:35:00
5:15 AM,53.6,53.6,100,29.97,0.2,Calm,Calm,-,N/A,,Overcast,0,2011-11-10 10:15:00
5:35 AM,55.4,53.6,94,29.97,1.2,SSE,5.8,-,N/A,,Overcast,150,2011-11-10 10:35:00
5:45 AM,55.4,53.6,94,29.97,0.2,SSE,5.8,-,N/A,Fog,Fog,150,2011-11-10 10:45:00
5:55 AM,55.4,53.6,94,29.96,0.5,Calm,Calm,-,N/A,,Overcast,0,2011-11-10 10:55:00
7:45 AM,55.4,53.6,94,29.97,3.0,Calm,Calm,-,N/A,,Overcast,0,2011-11-10 12:45:00
8:45 AM,55.4,55.4,100,29.93,5.0,East,5.8,-,N/A,,Mostly Cloudy,90,2011-11-10 13:45:00
10:45 AM,62.6,55.4,77,29.89,10.0,South,8.1,-,N/A,,Mostly Cloudy,170,2011-11-10 15:45:00
11:20 AM,62.6,55.4,77,29.86,10.0,SSE,5.8,-,N/A,,Overcast,160,2011-11-10 16:20:00
11:50 AM,60.8,53.6,77,29.83,10.0,SE,5.8,-,N/A,,Overcast,130,2011-11-10 16:50:00
1:45 PM,60.8,55.4,82,29.76,10.0,SE,3.5,-,N/A,,Overcast,130,2011-11-10 18:45:00
4:45 PM,57.2,55.4,94,29.70,10.0,Calm,Calm,-,N/A,,Mostly Cloudy,0,2011-11-10 21:45:00
5:45 PM,53.6,53.6,100,29.68,10.0,Calm,Calm,-,N/A,,Mostly Cloudy,0,2011-11-10 22:45:00
7:45 PM,51.8,42.8,71,29.66,10.0,North,9.2,-,N/A,,Mostly Cloudy,360,2011-11-11 00:45:00
8:45 PM,48.2,39.2,71,29.65,10.0,NNW,8.1,-,N/A,,Scattered Clouds,340,2011-11-11 01:45:00
8:55 PM,48.2,39.2,71,29.64,10.0,NNW,9.2,-,N/A,,Clear,330,2011-11-11 01:55:00
9:15 PM,46.4,39.2,76,29.63,10.0,NNW,8.1,-,N/A,,Partly Cloudy,330,2011-11-11 02:15:00
9:35 PM,46.4,39.2,76,29.64,10.0,NW,5.8,-,N/A,,Mostly Cloudy,320,2011-11-11 02:35:00
10:15 PM,46.4,37.4,71,29.62,10.0,NW,8.1,19.6,N/A,,Mostly Cloudy,320,2011-11-11 03:15:00
10:35 PM,46.4,37.4,71,29.63,10.0,NW,10.4,21.9,N/A,,Mostly Cloudy,320,2011-11-11 03:35:00
10:55 PM,44.6,35.6,71,29.63,10.0,NW,11.5,18.4,N/A,,Overcast,310,2011-11-11 03:55:00
11:15 PM,44.6,35.6,71,29.64,10.0,NW,8.1,17.3,N/A,,Overcast,310,2011-11-11 04:15:00
11:35 PM,44.6,35.6,71,29.64,10.0,NNW,12.7,19.6,N/A,,Overcast,340,2011-11-11 04:35:00
11:55 PM,44.6,35.6,71,29.63,7.0,NNW,17.3,21.9,N/A,,Overcast,340,2011-11-11 04:55:00